Find JD2

NORAD ID: 14729 Int'l Des: 1984-012 Owner: NRO/NRL Country: US operational
LEO

現在のビュー

3D地球を読み込み中...

About JD2

JD2 (NORAD 14729) is a satellite launched Feb 5, 1984 by NRO/NRL of US. It operates in LEO orbit with a mass of 200.00 kg.

次回通過

Passes for default location (London). Set your location on the main map for personalized predictions.

高度履歴

Loading altitude history...

軌道要素

1 14729U 84012D 26194.88036576 .00002655 00000-0 33415-3 0 9990
2 14729 63.3086 322.2251 0741230 128.9983 237.9501 13.76334283347589
Epoch: Jul 13, 2026 • Age: 18 hours

現在のステータス

高度 552.8 km
遠地点 / 近地点 N/A
速度 7.81 km/s
衛星直下点 63.42°N, 109.2°W
打ち上げ日 Feb 5, 1984
運用期間 42.4 years
タイプ other

技術仕様

分類 Payload
質量 200.00 kg
乾燥質量 200.00 kg
総質量 200.00 kg
長さ 0.90 m
直径 0.40 m
スパン 10.00 m
形状 Box + Ant
製造者 MM
バスタイプ NOSS SSU
フェーズステータス In Orbit
所有者/国 NRO/NRL/US

Most Searched